Location: ??? ???
(33.4974°N, 35.4618°E)
Time: 18:20:25
(UTC+00:00)

NOAA 11 - Pass Details

Date: 29 October 2020
Orbit: 833 x 849 km, 98.4° (Epoch: 29 November)

Event Time Altitude Azimuth Distance (km) Brightness Sun altitude
Rises 15:32:47 0° 164° (SSE) 3,382 7.3 -9.8°
Reaches altitude 10° 15:35:08 10° 163° (SSE) 2,448 6.5 -10.3°
Maximum altitude 15:40:34 84° 76° (ENE) 847 4.1 -11.4°
Drops below altitude 10° 15:46:01 10° 349° (N) 2,452 6.7 -12.5°
Sets 15:48:23 0° 349° (N) 3,388 7.4 -13.0°
